Notices

Please take our survey and provide feedback: https://eccc.sondage-survey.ca/f/LanguageSelection.aspx?s=442ca660-fcf1-47c0-95a9-59707d6fd709

Please note that for the Engineering Climate Datasets, IDF dataset is available through this link.  Intensity-Duration-Frequency (IDF) Files: Includes the latest version of short-duration rainfall Intensity-Duration-Frequency (IDF) statistics in the form of tables and graphs with accompanying documentation for various locations across Canada.  Current IDF files can be accessed through our station finder application or downloaded for each province and territory across Canada.  In addition, historical versions of IDF files are also available for download.  Updates of IDF files are provided approximately every two years depending on the availability of data.   Thank you for your patience as we enhance our systems.

Hourly Data Report for March 04, 2012

HALIFAX STANFIELD INT'L A
NOVA SCOTIA

44°52'48.060" N
63°30'00.050" W
145.40 m
8202250
71395
YHZ

Download Data

Hourly Data (March 2012)
Hourly Data Report for March 4, 2012
TIME
LST
Temp Definition
°C
Dew Point Definition
°C
Rel Hum Definition
%
Precip. Amount Definition
mm

Wind Dir Definition
10's deg

Wind Spd Definition
km/h
Visibility Definition
km
Stn Press Definition
kPa
Hmdx Definition


Wind Chill Definition


Weather Definition


00:00 6.2 6.2 100   27 20 24.1 97.66     Mostly Cloudy
01:00 3.9 3.6 98   27 11 24.1 97.80     Mostly Cloudy
02:00 2.4 2.0 97   23 11 24.1 97.95     Clear
03:00 1.8 1.4 97   21 15 24.1 97.99     Clear
04:00 1.6 1.3 98   20 22 19.3 98.04     Mostly Cloudy
05:00 1.5 1.2 98   23 20 24.1 98.21     Mostly Cloudy
06:00 1.3 0.9 97   23 17 24.1 98.26     Mostly Cloudy
07:00 0.9 0.4 96   21 17 24.1 98.35     Mostly Cloudy
08:00 1.5 1.1 97   22 20 24.1 98.42     Mostly Cloudy
09:00 2.4 1.4 93   24 19 24.1 98.50     Cloudy
10:00 4.0 1.3 83   25 19 24.1 98.54     Cloudy
11:00 3.9 0.2 77   23 17 24.1 98.54     Cloudy
12:00 4.2 -0.6 71   27 19 24.1 98.63     Cloudy
13:00 4.6 -1.6 64   26 7 24.1 98.49     Cloudy
14:00 4.0 -1.8 66   25 11 24.1 98.48     Cloudy
15:00 4.1 -1.7 66   20 9 24.1 98.44     Cloudy
16:00 3.5 -1.2 71   18 7 24.1 98.42     Cloudy
17:00 3.2 -1.1 73   19 7 24.1 98.43     Cloudy
18:00 2.0 -1.0 80   19 13 24.1 98.43     Snow Showers
19:00 0.9 -0.5 90   16 7 9.7 98.43     Snow Showers
20:00 0.3 -0.4 95   13 9 6.4 98.33     Snow
21:00 0.2 -0.3 96   14 6 3.2 98.31     Snow
22:00 0.0 -0.3 98   36 4 2.4 98.23   -1 Snow
23:00 -0.2 -0.5 98   36 9 1.6 98.15   -3 Snow,Fog

Notes on Data Quality.

Legend

  • E = Estimated
  • M = Missing
  • NA = Not Available*
  • [empty] = Indicates an unobserved value
Date modified: